Location: Unspecified
(33.6682°S, 0.0000°E)
Time: 10:55:41
(UTC+00:00)

Tiros 1 despin weight - Pass Details

Date: 26 June 2019
Orbit: 594 x 642 km, 48.2° (Epoch: 17 August)

Event Time Altitude Azimuth Distance (km) Brightness Sun altitude
Rises 11:15:48 0° 253° (WSW) 2,934 ? 31.9°
Reaches altitude 10° 11:18:57 10° 231° (SW) 2,037 ? 32.0°
Maximum altitude 11:21:53 16° 193° (SSW) 1,673 ? 32.1°
Drops below altitude 10° 11:24:51 10° 154° (SSE) 2,054 ? 32.3°
Sets 11:28:02 0° 132° (SE) 2,970 ? 32.4°
